Location: ????
(33.1659°N, 35.6604°E)
Time: 03:28:27
(UTC+00:00)

Cosmos 1441 Rocket - Pass Details

Date: 20 September 2019
Orbit: 496 x 541 km, 81.1° (Epoch: 17 October)

Event Time Altitude Azimuth Distance (km) Brightness Sun altitude
Rises 15:57:34 0° 172° (S) 2,631 6.7 -5.0°
Reaches altitude 10° 15:59:47 10° 166° (SSE) 1,740 5.7 -5.5°
Maximum altitude 16:03:23 42° 95° (E) 745 3.5 -6.2°
Drops below altitude 10° 16:06:58 10° 24° (NNE) 1,727 5.7 -7.0°
Sets 16:09:10 0° 17° (NNE) 2,609 6.7 -7.4°
